Location: Newark
(42.2947°N, 5.1925°W)
Time: 02:11:35
(UTC+00:00)

Hubble Space Telescope - Visible Passes

Search period start: 14 December 2019 00:00
Search period end: 24 December 2019 00:00
Orbit: 536 x 540 km, 28.5° (Epoch: 12 December)

Date Brightness Start Highest point End Pass type
(mag) Time Alt. Az. Time Alt. Az. Time Alt. Az.
15 Dec 3.6 06:44:39 10° S 06:45:39 11° S 06:46:39 10° SSE visible
16 Dec 3.5 06:33:33 10° SSW 06:34:55 11° S 06:36:16 10° SSE visible
17 Dec 3.4 06:22:38 10° SSW 06:24:10 12° S 06:25:41 10° SSE visible
18 Dec 3.4 06:11:50 10° SSW 06:13:24 12° S 06:14:59 10° SSE visible
19 Dec 3.3 06:01:09 10° SSW 06:02:40 12° S 06:04:11 10° SSE visible
20 Dec 3.3 05:50:34 10° SSW 05:51:55 11° S 05:53:15 10° SSE visible
21 Dec 3.3 05:40:32 10° SSW 05:41:10 11° S 05:42:08 10° S visible
